www.pogodaiklimat.ru

Погода и климат >> Архив погоды >> Канада >> Eureka Climate


ПОГОДА в Eureka Climate

  • Прогноз погоды в Eureka Climate
  • Монитор погоды в Eureka Climate
  • Климат города

АРХИВ ПОГОДЫ в Eureka Climate

Время (UTC), дата Ветер
(напр.,м/с)
 
Видим.   Явления Облачность Т
(С)
Тd
(С)
f
(%)
Тe
(С)
Тes
(С)
Комфортность P
(гПа)
Po
(гПа)
Тmin
(С)
Tmax
(С)
R
(мм)
R24
(мм)
S
(см)
18 9.08 З 3 н/о н/о +1.8 -0.4 85 -3 -3 1009.0 1007.7 +0.4 +3.2
21 9.08 З 2 н/о н/о +3.9 -0.1 75 +1 +1 1008.7 1007.4
00 10.08 ЮВ 1 н/о н/о +5.3 -0.6 66 +4 +4 1008.3 1007.0 +0.4 +5.9
03 10.08 Ю 5 н/о н/о +3.9 -0.1 75 -1 -1 1007.9 1006.6
06 10.08 Ю 6 н/о н/о +2.3 +0.4 87 -4 -4 1007.1 1005.8 +0.4 +5.9
09 10.08 ЮВ 7 н/о н/о +2.0 -0.5 83 -4 -4 1006.9 1005.6
12 10.08 ЮВ 10 н/о н/о +2.0 -0.7 82 -5 -5 1006.4 1005.1 +1.6 +5.9
15 10.08 ЮВ 8 н/о н/о +2.6 -0.3 81 -4 -4 1005.5 1004.2
18 10.08 ЮВ 10 н/о н/о +3.0 -1.0 75 -4 -4 1004.3 1003.0 +1.6 +3.3
21 10.08 ЮВ 5 н/о н/о +3.2 -0.4 77 -2 -2 1004.5 1003.2
00 11.08 Ю 10 н/о н/о +2.3 +0.3 87 -5 -5 1003.4 1002.1 +1.6 +3.5
03 11.08 ЮВ 9 н/о {осадки} н/о +1.1 +0.6 96 -7 -7 1002.8 1001.5 0.6
09 11.08 ЮВ 7 н/о н/о +2.6 +0.8 88 -4 -4 1002.2 1000.9
12 11.08 ЮВ 5 н/о н/о +2.0 +0.6 90 -4 -4 1002.6 1001.3 +0.5 +3.5
15 11.08 Ю 5 н/о н/о +2.9 +0.9 87 -3 -3 1003.1 1001.8
21 11.08 Ю 7 н/о н/о +3.4 +0.8 83 -3 -3 1005.1 1003.8
00 12.08 ЮВ 4 н/о н/о +2.0 -0.1 86 -3 -3 1007.0 1005.7 +1.8 +4.4
03 12.08 Ю 7 н/о н/о +1.5 -0.9 84 -5 -5 1007.5 1006.2
06 12.08 ЮВ 4 н/о н/о +0.9 -1.1 86 -4 -4 1008.3 1007.0 +0.8 +4.4
09 12.08 ЮВ 7 н/о н/о +0.5 -1.2 88 -7 -7 1008.8 1007.5
12 12.08 ЮВ 8 н/о н/о +1.4 -1.1 83 -6 -6 1008.1 1006.8 +0.5 +4.4
15 12.08 ЮВ 7 н/о н/о +1.9 -0.6 83 -4 -4 1006.5 1005.2
18 12.08 ЮВ 9 н/о {осадки} н/о +1.5 -0.5 87 -6 -6 1004.6 1003.3 +0.5 +2.3 1
21 12.08 ЮВ 9 н/о н/о +4.1 +2.1 87 -2 -2 1002.9 1001.6
00 13.08 ЮВ 8 н/о н/о +4.6 +3.0 89 -1 -1 1001.7 1000.4 +0.5 +5.7
03 13.08 ЮВ 8 н/о н/о +5.5 +4.0 90 -0 -0 1000.4 999.1
06 13.08 ЮВ 6 н/о н/о +5.6 +3.6 87 +1 +1 1000.1 998.8 +0.5 +6.8
09 13.08 СВ 2 н/о н/о +4.2 +2.6 89 +2 +2 1000.6 999.3
12 13.08 СЗ 4 н/о н/о +2.0 +1.2 94 -3 -3 1001.5 1000.2 +1.1 +6.8
18 13.08 н/о н/о +3.7 -2.8 62 1002.8 1001.5 +1.1 +5.9
21 13.08 З 4 н/о н/о +2.1 -2.7 71 -2 -2 1002.9 1001.6
00 14.08 З 3 н/о н/о +1.4 -1.6 80 -2 -2 1001.6 1000.3 +1.0 +4.2
06 14.08 З 6 н/о н/о +0.9 -4.6 67 -5 -5 1000.9 999.6 +0.7 +5.9
09 14.08 СЗ 2 н/о н/о +0.9 -6.4 58 -2 -2 1002.0 1000.7
12 14.08 С 6 н/о н/о +0.7 -5.5 63 -5 -5 1004.5 1003.2 +0.2 +5.9
15 14.08 С 10 н/о н/о +0.3 -5.8 64 -7 -7 1006.8 1005.5
18 14.08 С 9 н/о н/о +0.1 -5.5 66 -7 -7 1009.5 1008.2 -0.2 +1.4
21 14.08 С 7 н/о н/о +0.1 -4.8 70 -7 -7 1011.8 1010.5
00 15.08 З 1 н/о н/о -0.4 -4.0 77 -2 -2 1013.3 1012.0 -0.8 +1.2
03 15.08 В 2 н/о н/о +0.4 -3.4 76 -3 -3 1013.4 1012.1
09 15.08 ЮВ 5 н/о н/о +0.8 -2.7 77 -5 -5 1013.1 1011.8
12 15.08 ЮВ 6 н/о н/о +1.5 -2.3 76 -4 -4 1012.0 1010.7 -0.5 +1.4
15 15.08 Ю 5 н/о н/о +1.8 -1.9 76 -4 -4 1010.6 1009.3
18 15.08 СВ 1 н/о н/о +1.8 +0.5 91 +1 +1 1010.3 1009.0 -0.8 +2.5
21 15.08 С 1 н/о н/о +2.0 +0.7 91 +2 +2 1011.1 1009.8 0.2
00 16.08 С 5 н/о н/о +1.2 -1.0 85 -5 -5 1011.8 1010.5 +0.6 +2.5 0.2
03 16.08 С 4 н/о н/о +0.7 -2.0 82 -4 -4 1012.2 1010.9
06 16.08 СЗ 3 н/о н/о +0.2 -2.0 85 -4 -4 1013.2 1011.9 +0.2 +2.5
09 16.08 ЮЗ 3 н/о н/о -0.0 -1.9 87 -4 -4 1014.1 1012.8
12 16.08 З 3 н/о н/о +0.1 -2.6 82 -4 -4 1015.0 1013.7 -0.4 +2.5
15 16.08 СЗ 6 н/о н/о +0.5 -3.2 76 -6 -6 1015.8 1014.5

 

Местоположение метеостанции Eureka Climate (Канада): широта 79.99 долгота -85.93 высота над уровнем моря 10 м.

В архиве по умолчанию представлена погода в Eureka Climate за последнюю неделю. Архивные данные за месяц целиком и за предыдущие месяцы, начиная с января 2011 года, Вы можете получить, выбрав интересующий диапазон дат из раскрывающегося списка и нажав кнопку "Ввод!".

Внимание! Время в таблицах - всемирное. Для получения местного времени необходимо прибавить поправку, которая в Eureka Climate равна -6 ч.

Смотрите также архив погоды в соседних городах и на ближайших метеорологических станциях:

Погода в Eureka (Канада) (1 км)
Погода в Chris Hadfield (Канада) (343 км)
Погода в Isachsen (aut) (Канада) (383 км)
Погода в Mittarfik Qaanaaq (Гренландия) (453 км)
Погода в Kitsissut (Гренландия) (472 км)
Погода в Alert Climate (Канада) (482 км)
Погода в Resolute Cs (Канада) (624 км)
Погода в Resolute Airport (Канада) (624 км)
Погода в Arctic Bay (Канада) (778 км)
Погода в Pond Inlet Airport (Канада) (836 км)

Пояснения к столбцам:

Ветер - указаны скорость ветра в м/с - средняя за 10 мин, порывы в срок и между сроками (в фигурных скобках) и направление, откуда дует ветер: С - северный, СВ - северо-восточный, В - восточный, ЮВ - юго-восточный, Ю - южный, ЮЗ - юго-западный, З - западный, СЗ - северо-западный.
Видимость - горизонтальная дальность видимости в метрах или километрах. При видимости от 1 до 10 км при отсутствии осадков обычно наблюдается дымка, при ухудшении видимости до 1 км и менее - туман. В сухую погоду видимость может ухудшаться дымом, пылью или мглою.
Явления - указаны атмосферные явления, наблюдавшиеся в срок или в последний час перед сроком; фигурными скобками обозначены явления, наблюдавшиеся между сроками (за 1-3 часа до срока); квадратными скобками обозначены град или гололедные отложения с указанием их диаметра в мм.
Облачность - указаны через наклонную черту общая и нижняя облачность в баллах и высота нижней границы облаков в метрах; квадратными скобками обозначены формы облаков: Ci - перистые, Cs - перисто-слоистые, Cc - перисто-кучевые, Ac - высококучевые, As - высокослоистые, Sc - слоисто-кучевые, Ns - слоисто-дождевые, Cu - кучевые, Cb - кучево-дождевые. Подробнее классификацию облаков см. в Атласе облаков (PDF).
T - Температура воздуха - температура, измеренная на высоте 2 м над землей.
Td - Температура точки росы - температура, при понижении до которой содержащийся в воздухе водяной пар достигнет насыщения.
f - Относительная влажность воздуха - влажноcть воздуха, измеренная на высоте 2 м над землей.
Te - Эффективная температура - температура, которую ощущает одетый по сезону человек в тени. Характеристика душности погоды. При расчете учитывается влияние влажности воздуха и скорости ветра на теплоощущения человека.
Tes - Эффективная температура на солнце - температура, которую ощущает человек, с поправкой на солнечный нагрев. Характеристика знойности погоды. Зависит от высоты солнца над горизонтом, облачности и скорости ветра. Ночью, в пасмурную погоду, а также при ветре 12 м/с и более поправка равна нулю.
P - Атмосферное давление - приведенное к уровню моря атмосферное давление.
Po - Атмосферное давление - измеренное на уровне метеостанции атмосферное давление.
Tmin - Минимальная температура - минимум температуры воздуха на высоте 2 м над землей.
Tmax - Максимальная температура - максимум температуры воздуха на высоте 2 м над землей.
R - Количество осадков - Количество выпавших осадков за период времени, мм. При наведении курсора мыши на число - период времени, за который выпало указанное количество осадков.
R24 - Количество осадков - Количество выпавших осадков за 24 часа, мм.
S - Снежный покров - Высота снежного покрова, см. При наведении курсора мыши на число - состояние снежного покрова и степень покрытия местности в баллах.